TimeCDT,TemperatureF,Dew PointF,Humidity,Sea Level PressureIn,VisibilityMPH,Wind Direction,Wind SpeedMPH,Gust SpeedMPH,PrecipitationIn,Events,Conditions,WindDirDegrees,DateUTC
12:19 AM,35.6,35.6,100,30.34,1.8,Calm,Calm,-,N/A,,Clear,0,2013-09-16 05:19:00
12:31 AM,37.4,35.6,93,30.35,3.0,WSW,3.5,-,N/A,,Clear,240,2013-09-16 05:31:00
12:53 AM,37.0,36.0,96,30.38,10.0,SW,4.6,-,N/A,,Clear,230,2013-09-16 05:53:00
1:53 AM,37.9,37.0,97,30.39,10.0,SW,4.6,-,N/A,,Clear,230,2013-09-16 06:53:00
2:53 AM,37.0,36.0,96,30.40,10.0,SW,4.6,-,N/A,,Clear,230,2013-09-16 07:53:00
3:53 AM,36.0,34.0,93,30.40,10.0,Calm,Calm,-,N/A,,Clear,0,2013-09-16 08:53:00
4:53 AM,34.0,33.1,96,30.42,10.0,SSW,4.6,-,N/A,,Clear,200,2013-09-16 09:53:00
5:53 AM,36.0,35.1,97,30.44,10.0,SSW,4.6,-,N/A,,Clear,210,2013-09-16 10:53:00
6:53 AM,36.0,35.1,97,30.46,10.0,WSW,4.6,-,N/A,,Clear,250,2013-09-16 11:53:00
7:53 AM,41.0,39.9,96,30.47,10.0,SW,3.5,-,N/A,,Clear,220,2013-09-16 12:53:00
9:53 AM,52.0,46.0,80,30.48,10.0,Calm,Calm,-,N/A,,Clear,0,2013-09-16 14:53:00
10:53 AM,55.9,45.0,67,30.47,10.0,Calm,Calm,-,N/A,,Partly Cloudy,0,2013-09-16 15:53:00
11:53 AM,57.0,43.0,59,30.46,10.0,Calm,Calm,-,N/A,,Partly Cloudy,0,2013-09-16 16:53:00
12:53 PM,60.1,42.1,51,30.45,10.0,Calm,Calm,-,N/A,,Partly Cloudy,0,2013-09-16 17:53:00
1:53 PM,61.0,41.0,48,30.43,10.0,Calm,Calm,-,N/A,,Clear,0,2013-09-16 18:53:00
2:53 PM,62.1,41.0,46,30.40,10.0,Calm,Calm,-,N/A,,Clear,0,2013-09-16 19:53:00
3:53 PM,63.0,43.0,48,30.38,10.0,Variable,3.5,-,N/A,,Clear,0,2013-09-16 20:53:00
4:53 PM,63.0,44.1,50,30.36,10.0,Calm,Calm,-,N/A,,Clear,0,2013-09-16 21:53:00
5:53 PM,63.0,45.0,52,30.35,10.0,Calm,Calm,-,N/A,,Clear,0,2013-09-16 22:53:00
6:53 PM,54.0,45.0,72,30.34,10.0,East,5.8,-,N/A,,Clear,90,2013-09-16 23:53:00
7:53 PM,50.0,44.1,80,30.34,10.0,ESE,3.5,-,N/A,,Clear,120,2013-09-17 00:53:00
8:53 PM,48.9,44.1,83,30.33,10.0,SE,4.6,-,N/A,,Clear,140,2013-09-17 01:53:00
9:53 PM,43.0,41.0,93,30.32,10.0,Calm,Calm,-,N/A,,Clear,0,2013-09-17 02:53:00
10:53 PM,41.0,39.9,96,30.32,7.0,Calm,Calm,-,N/A,,Clear,0,2013-09-17 03:53:00
11:53 PM,39.0,37.9,96,30.32,5.0,Calm,Calm,-,N/A,,Clear,0,2013-09-17 04:53:00